This is the latest recevied weather packets stored in our database for station/object KE8WAY. If no packets are shown the sender has not sent any weather packets the latest 10 day(s).
| Time | Temp. | Humidity | Pressure | Rain* | Wind** | Luminosity | Snow |
|---|---|---|---|---|---|---|---|
| 1777483600 | 9.44° C | 87% | 1010.1 hPa | 0 mm | - | 84 W/m² | - |
| 1777483294 | 9.44° C | 86% | 1010.3 hPa | 0 mm | - | 62 W/m² | - |
| 1777482991 | 9.44° C | 85% | 1010.2 hPa | 0 mm | - | 111 W/m² | - |
| 1777482687 | 10° C | 84% | 1010.5 hPa | 0 mm | - | 115 W/m² | - |
| 1777482384 | 10° C | 84% | 1010.3 hPa | 0 mm | - | 157 W/m² | - |
| 1777482082 | 10° C | 84% | 1010.4 hPa | 0 mm | - | 130 W/m² | - |
| 1777481780 | 10° C | 82% | 1010.3 hPa | 0 mm | - | 116 W/m² | - |
| 1777481477 | 10.56° C | 83% | 1010.6 hPa | 0 mm | - | 104 W/m² | - |
| 1777481172 | 10.56° C | 81% | 1010.4 hPa | 0 mm | - | 96 W/m² | - |
| 1777480869 | 10.56° C | 83% | 1010.6 hPa | 0 mm | - | 59 W/m² | - |
| 1777480566 | 10.56° C | 83% | 1010.7 hPa | 0 mm | - | 57 W/m² | - |
| 1777480263 | 10.56° C | 82% | 1010.6 hPa | 0 mm | - | 71 W/m² | - |
| 1777479959 | 10.56° C | 82% | 1010.5 hPa | 0 mm | - | 56 W/m² | - |
| 1777479656 | 10.56° C | 82% | 1010.8 hPa | 0 mm | - | 77 W/m² | - |
| 1777479354 | 10.56° C | 82% | 1010.8 hPa | 0 mm | - | 93 W/m² | - |
| 1777479049 | 10.56° C | 81% | 1010.6 hPa | 0 mm | - | 106 W/m² | - |
| 1777478747 | 10.56° C | 81% | 1010.6 hPa | 0 mm | - | 105 W/m² | - |
| 1777478443 | 10.56° C | 83% | 1010.6 hPa | 0 mm | - | 109 W/m² | - |
| 1777478140 | 10.56° C | 83% | 1010.3 hPa | 0 mm | - | 145 W/m² | - |
| 1777477836 | 10.56° C | 83% | 1010.4 hPa | 0 mm | - | 139 W/m² | - |
| 1777477532 | 10.56° C | 84% | 1010.4 hPa | 0 mm | - | 125 W/m² | - |
| 1777477229 | 10.56° C | 84% | 1010.5 hPa | 0 mm | - | 94 W/m² | - |
| 1777476925 | 10.56° C | 84% | 1010.7 hPa | 0 mm | - | 109 W/m² | - |
| 1777476623 | 10.56° C | 84% | 1010.6 hPa | 0 mm | - | 100 W/m² | - |
| 1777476319 | 11.11° C | 84% | 1010.6 hPa | 0 mm | - | 154 W/m² | - |
* Rain latest hour (hover to see other rain measurements)
** Current wind speed in m/s (hover to see current wind gust speed)